"Pseudo-MPEC" for P11poU2

Created 2021 Nov 26 18:07:11 UT using Find_Orb

Click here for an explanation of pseudo-MPECs

 
 Astrometry: 
     P11poU2  C2021 11 048^VNgjN-B3Gu(;R`'wgo12gY!o2\[Kt7AstrometrySa'(bhJO6yF52
     P11poU2  C2021 11 041+RqgO^\ap9N)nwPXAKItfQNs'#/4oX_\.wron1redacted;wQumF52
     P11poU2  C2021 11 040-h[W=Hb?P[F.E'v:_\PmYHb'Z`Y:5JBI`Sfb;_8Q`PgwDL3t@FBF52
     P11poU2  C2021 11 04\(Vv;p1Au.j[aVCW5.j8CA\oTViTxL\Uw%hsvc57t2njVFlni3P8F52
     P11poU2  C2021 11 10A`(O_.2n0cMx\NtcfNPZrRkD_a1jy,clickP[[iiG]e1x!9M!V9)F51
     P11poU2  C2021 11 10,M!8s\XZG4SRoiv_6Y_UD7W7d2HWT+qmIk)[%+]m^6='2rE;MD,*F51
     P11poU2  C2021 11 105q=](3l3*97OBr/'VV@FsG2O?1jG/Q+EH(*5Ntg/Id'2k7i1]b3oF51
     P11poU2  C2021 11 14.45817405 23 42.34 +07 03 10.0    ~BQEq 21.02GVNEOCPG96
     P11poU2  C2021 11 14.46382205 23 42.14 +07 03 09.1    ~BQEq 21.58GVNEOCPG96
     P11poU2  C2021 11 14.46946805 23 41.96 +07 03 07.7    ~BQEq 21.39GVNEOCPG96
     P11poU2  C2021 11 14.47512705 23 41.74 +07 03 06.8    ~BQEq 21.78GVNEOCPG96
     P11poU2 KC2021 11 16.33437605 22 37.46 +06 56 45.9    ~BQEq 21.22GVNEOCPI52
     P11poU2 KC2021 11 16.34173205 22 37.17 +06 56 44.4    ~BQEq 20.73GVNEOCPI52
     P11poU2 KC2021 11 16.34863705 22 36.88 +06 56 42.7    ~BQEq 21.06GVNEOCPI52
     P11poU2 KC2021 11 16.36068805 22 36.34 +06 56 39.8    ~BQEq 21.35GVNEOCPI52
     P11poU2  C2021 11 258,[\Sjhere3_5iartwFlKh!NR(awtPcWlv'^(bu6RbuBR6:3:r^(F51
     P11poU2  C2021 11 25sg4UNfOXOa$Khc-*8C\r$,/forr2v3*[oWH^3PJbS#fXE)eOAcfvF51
     P11poU2  C2021 11 25[D(jq;g^ESW$kDTo`H\=flm-U3)j12[('Hf$t](explanatione'F51

Station data:
(F51) Pan-STARRS 1, Haleakala  (N20.707235 W156.255910)  US/Hawaii.
   Observers N. Primak, A. Schultz, S. Watters, J. Thiel, T. Goggia. Measurer
   PS1 Science Consortium. 1.8-m Ritchey-Chrétien + CCD.
(F52) Pan-STARRS 2, Haleakala  (N20.707384 W156.255910)  US/Hawaii. 1.8-m
   Ritchey-Chrétien + CCD.
(G96) Mt. Lemmon Survey  (N32.442754 W110.788720)  US/Arizona.  Observers T.
   A. Pruyne, B. M. Africano, E. J. Christensen, G. A. Farneth, D. C. Fuls,
   A. R. Gibbs, A. D. Grauer, H. Gröller, J. A. Johnson, R. A. Kowalski, S.
   M. Larson, G. J. Leonard, D. Rankin, R. L. Seaman, F. C. Shelly. 1.5-m
   reflector + 10K CCD.
(I52) Steward Observatory, Mt. Lemmon Station  (N32.442547 W110.788920)
   US/Arizona.  Observers T. A. Pruyne, B. M. Africano, E. J. Christensen, G.
   A. Farneth, D. C. Fuls, A. R. Gibbs, A. D. Grauer, H. Gröller, J. A.
   Johnson, R. A. Kowalski, S. M. Larson, G. J. Leonard, D. Rankin, R. L.
   Seaman, F. C. Shelly. 1.0-m reflector + CCD.

Orbital elements:  P11poU2
   Perihelion 2022 Mar 30.604675 +/- 0.0390805 TT = 14:30:43 (JD 2459669.104675)
Epoch 2021 Nov 25.0 TT = JDT 2459543.5   Earth MOID: 0.1172   AutoNEOCP
M 326.70093460 +/- 0.0484322        (J2000 ecliptic)
n   0.26511008 +/- 0.000308028      Peri.   58.54691 +/- 0.0238111
a   2.39985621 +/- 0.00185896       Node   110.62681 +/- 0.0155107
e   0.5825038 +/- 0.000497333       Incl.   11.33328 +/- 0.0045446
P   3.72                   H 19.5   G  0.15   U  7.3  
q 1.00193081 +/- 0.000430425    Q 3.79778161 +/- 0.00412494
From 18 observations 2021 Nov. 4-25; mean residual 0".20
Residuals in arcseconds: 
211104 F52  .01+  .02-    211110 F51  .01-  .12+    211116 I52  .13+  .25+    
211104 F52  .10-  .01-    211114 G96  .11+  .22-    211116 I52  .00   .09-    
211104 F52  .02+  .09-    211114 G96  .09+  .09+    211116 I52  .71-  .61-    
211104 F52  .02+  .02-    211114 G96  .37+  .10-    211125 F51  .06+  .02+    
211110 F51  .03-  .04+    211114 G96  .06+  .21+    211125 F51  .03-  .03-    
211110 F51  .01+  .10+    211116 I52  .01-  .30+    211125 F51  .01+  .01+    

Ephemerides (geocentric):
Date (UTC) HH   RA              Dec         delta   r     elong  mag " sig PA
---- -- -- --  -------------   -----------  ------ ------ -----  --- ---- ---
2021 11 26 18  05 13 35.166   +06 30 33.20  .79581 1.7526 158.8 21.0 .157 165
2021 11 26 19  05 13 32.375   +06 30 29.33  .79539 1.7523 158.8 21.0 .159 165
2021 11 26 20  05 13 29.580   +06 30 25.48  .79497 1.7519 158.9 21.0 .161 165
2021 11 26 21  05 13 26.779   +06 30 21.65  .79454 1.7516 158.9 21.0 .162 165
2021 11 26 22  05 13 23.974   +06 30 17.85  .79412 1.7513 158.9 21.0 .164 165
2021 11 26 23  05 13 21.163   +06 30 14.08  .79370 1.7510 159.0 21.0 .166 166
2021 11 27 00  05 13 18.348   +06 30 10.32  .79327 1.7506 159.0 21.0 .167 166
2021 11 27 01  05 13 15.528   +06 30 06.60  .79285 1.7503 159.0 21.0 .169 166
2021 11 27 02  05 13 12.702   +06 30 02.89  .79243 1.7500 159.1 21.0 .171 166
2021 11 27 03  05 13 09.872   +06 29 59.21  .79201 1.7496 159.1 21.0 .173 166
2021 11 27 04  05 13 07.037   +06 29 55.55  .79159 1.7493 159.1 21.0 .174 167
2021 11 27 05  05 13 04.197   +06 29 51.92  .79117 1.7490 159.2 21.0 .176 167
2021 11 27 06  05 13 01.352   +06 29 48.30  .79075 1.7487 159.2 21.0 .178 167
2021 11 27 07  05 12 58.502   +06 29 44.72  .79033 1.7483 159.2 21.0 .180 167
2021 11 27 08  05 12 55.648   +06 29 41.16  .78991 1.7480 159.3 21.0 .182 167
2021 11 27 09  05 12 52.788   +06 29 37.62  .78949 1.7477 159.3 21.0 .183 168
2021 11 27 10  05 12 49.923   +06 29 34.10  .78907 1.7474 159.3 21.0 .185 168
2021 11 27 11  05 12 47.054   +06 29 30.61  .78865 1.7470 159.4 20.9 .187 168
2021 11 27 12  05 12 44.179   +06 29 27.14  .78824 1.7467 159.4 20.9 .189 168
2021 11 27 13  05 12 41.300   +06 29 23.70  .78782 1.7464 159.4 20.9 .191 168
2021 11 27 14  05 12 38.416   +06 29 20.28  .78740 1.7460 159.5 20.9 .192 168
2021 11 27 15  05 12 35.527   +06 29 16.89  .78699 1.7457 159.5 20.9 .194 169
2021 11 27 16  05 12 32.633   +06 29 13.52  .78657 1.7454 159.5 20.9 .196 169
2021 11 27 17  05 12 29.734   +06 29 10.18  .78615 1.7451 159.6 20.9 .198 169
2021 11 27 18  05 12 26.830   +06 29 06.86  .78574 1.7447 159.6 20.9 .200 169
2021 11 27 19  05 12 23.921   +06 29 03.56  .78532 1.7444 159.6 20.9 .202 169
2021 11 27 20  05 12 21.007   +06 29 00.29  .78491 1.7441 159.7 20.9 .204 170
2021 11 27 21  05 12 18.089   +06 28 57.04  .78449 1.7438 159.7 20.9 .206 170
2021 11 27 22  05 12 15.165   +06 28 53.82  .78408 1.7434 159.7 20.9 .207 170
2021 11 27 23  05 12 12.237   +06 28 50.62  .78366 1.7431 159.7 20.9 .209 170
2021 11 28 00  05 12 09.303   +06 28 47.45  .78325 1.7428 159.8 20.9 .211 170
2021 11 28 01  05 12 06.365   +06 28 44.30  .78284 1.7424 159.8 20.9 .213 170
2021 11 28 02  05 12 03.422   +06 28 41.18  .78242 1.7421 159.8 20.9 .215 171
2021 11 28 03  05 12 00.474   +06 28 38.08  .78201 1.7418 159.9 20.9 .217 171
2021 11 28 04  05 11 57.521   +06 28 35.01  .78160 1.7415 159.9 20.9 .219 171
2021 11 28 05  05 11 54.564   +06 28 31.96  .78119 1.7411 159.9 20.9 .221 171
2021 11 28 06  05 11 51.601   +06 28 28.94  .78078 1.7408 160.0 20.9 .223 171
2021 11 28 07  05 11 48.633   +06 28 25.94  .78037 1.7405 160.0 20.9 .225 172
2021 11 28 08  05 11 45.661   +06 28 22.97  .77996 1.7402 160.0 20.9 .227 172
2021 11 28 09  05 11 42.684   +06 28 20.02  .77955 1.7398 160.1 20.9 .229 172
2021 11 28 10  05 11 39.702   +06 28 17.10  .77914 1.7395 160.1 20.9 .231 172
2021 11 28 11  05 11 36.715   +06 28 14.20  .77873 1.7392 160.1 20.9 .233 172
2021 11 28 12  05 11 33.723   +06 28 11.33  .77832 1.7388 160.2 20.9 .235 172
2021 11 28 13  05 11 30.726   +06 28 08.49  .77791 1.7385 160.2 20.9 .237 173
2021 11 28 14  05 11 27.724   +06 28 05.67  .77750 1.7382 160.2 20.9 .239 173
2021 11 28 15  05 11 24.718   +06 28 02.87  .77709 1.7379 160.2 20.9 .241 173
2021 11 28 16  05 11 21.707   +06 28 00.10  .77668 1.7375 160.3 20.9 .243 173
2021 11 28 17  05 11 18.690   +06 27 57.36  .77628 1.7372 160.3 20.9 .245 173